Regional Weather Roundup
Issued by NWS

Home | Current Version | Previous Version | Text Only | Print | Product List | Glossary On
Versions: 1 2 3 4 5 6 7 8 9 10 11 12 13 14 15 16 17 18 19 20 21 22 23 24 25 26 27 28 29 30 31 32 33 34 35 36 37 38 39 40 41 42 43 44 45 46 47 48 49 50
000
ASUS45 KTFX 212119
RWRMT
MONTANA HOURLY WEATHER ROUNDUP
NATIONAL WEATHER SERVICE GREAT FALLS MT
319 PM MDT TUE OCT 21 2014

NOTE: "FAIR" INDICATES FEW OR NO CLOUDS BELOW 12000 FEET WITH NO
SIGNIFICANT WEATHER AND/OR OBSTRUCTIONS TO VISIBILITY.

* THESE STATIONS ARE NOT UNDER NWS QUALITY CONTROL. THEY DO NOT
   REPORT WEATHER SUCH AS PRECIPITATION OR FOG.

MTZ001>007-043-212200-
WEST OF THE DIVIDE
CITY           SKY/WX    TMP DP  RH WIND       PRES   REMARKS
KALISPELL      CLOUDY    52  46  80 S7        29.84R
MISSOULA       LGT RAIN  46  45  96 E3        29.93R
BUTTE          LGT RAIN  39  36  89 NW7       29.89R WCI  34
MULLAN PASS    CLOUDY    36  34  92 VRB5      29.93R WCI  32
* ESSEX        N/A       46  43  89 W2         N/A
* LINCOLN      N/A       42  39  89 S5G13      N/A
* LOOKOUT PASS N/A       42  38  86 SE2G10     N/A
* POLSON       N/A       47  47 100 S2         N/A
* RONAN APT    CLOUDY    48  45  89 SE6        N/A
* SEELEY LAKE  N/A       43  42  96 SE2        N/A
* THOMP F APT  CLOUDY    43  30  60 S18G34     N/A
$$

MTZ008-052>055-212200-
SOUTHWEST MONTANA
CITY           SKY/WX    TMP DP  RH WIND       PRES   REMARKS
BOZEMAN        PTCLDY    63  30  29 W29G37    29.75R
DILLON         LGT RAIN  41  37  86 SW14      29.92R
W YELLOWSTONE  PTSUNNY   39  32  76 S13G20    30.00R WCI  31
* THREE FORKS  PTCLDY    55  43  64 W13G21     N/A
* BOULDER HILL N/A       42  34  73 NE2        N/A
* MONIDA PASS  N/A       40  34  79 W14G26     N/A   WCI  32
* RAYNOLDS PAS N/A       41  26  55 S22G31     N/A
* WHITEHALL    N/A       48  36  63 SW9G27     N/A
* WISE RIVER   N/A       38  34  86 NW12G17    N/A   WCI  30
$$

MTZ009>010-012-014-046-048-049-054-212200-
EAST SLOPES AND CENTRAL MONTANA
CITY           SKY/WX    TMP DP  RH WIND       PRES   REMARKS
CUT BANK       LGT RAIN  48  48 100 W6        29.74S
GREAT FALLS    LGT RAIN  46  45  96 W13       29.77R
HELENA         LGT RAIN  45  39  80 W9        29.83R
MALMSTROM AFB  LGT RAIN  48  46  93 W14       29.79R
* CONRAD       CLOUDY    48  48 100 W10        N/A
* DEARBORN     N/A       48  45  89 S4G9       N/A
* EAST GLACIER N/A       46  36  68 W9G16      N/A
* MONARCH      N/A       41  39  93 W17G22     N/A
* PENDROY      N/A       45  44  96 W2         N/A
* ROGERS PASS  N/A       38  35  89 E7G14      N/A   WCI  33
* SAINT MARY   N/A       49  37  63 SW8G19     N/A
* SWEET GRASS  N/A       49  49 100 NW9        N/A
* WHITE SULPH  N/A       51  39  64 NW19G29    N/A
$$

MTZ011-013-016-021-035-040-045-047-050-051-212200-
NORTH CENTRAL MONTANA
CITY           SKY/WX    TMP DP  RH WIND       PRES   REMARKS
HAVRE          CLOUDY    59  46  62 W8        29.64F
LEWISTOWN      CLOUDY    64  45  50 W10G18    29.66R
* CHINOOK      CLOUDY    57  46  67 W9        29.62F
* FORT BENTON  CLOUDY    52  48  86 SW9       29.75R
* CHESTER      N/A       53  45  74 NW18G30    N/A
* DENTON       N/A       56  45  67 NW13G19    N/A
* GEYSER       N/A       48  46  93 W29G42     N/A
* JUDITH GAP   N/A       62  45  54 SW6        N/A
* LOMA         N/A       56  47  72 W13G19     N/A
$$

MTZ017>020-022>027-061-062-212200-
NORTHEAST MONTANA
CITY           SKY/WX    TMP DP  RH WIND       PRES   REMARKS
GLASGOW        PTCLDY    75  46  36 SE8       29.55F
GLENDIVE       SUNNY     70  43  38 S8        29.61F
JORDAN         PTCLDY    79  37  22 W16       29.58S
SIDNEY         SUNNY     72  45  38 CALM      29.59F
WOLF POINT     SUNNY     75  48  39 E7        29.55F
* BEAVER HILL  N/A       76  39  26 S12        N/A
* CIRCLE       N/A       80  43  27 S3G9       N/A
* LINDSAY DVD  N/A       76  43  31 W6         N/A
* NAVAJO       N/A       74  43  33 SE7        N/A
$$

MTZ028>042-056>058-212200-
SOUTHCENTRAL AND SOUTHEAST MONTANA
CITY           SKY/WX    TMP DP  RH WIND       PRES   REMARKS
BAKER          SUNNY     81  37  21 SW10      29.63F
BILLINGS       CLOUDY    70  34  27 SW12      29.66F
LIVINGSTON     PTCLDY    63  28  27 SW29G46   29.75R
MILES CITY     SUNNY     75  41  30 S3        29.60F
* LAUREL APT   CLOUDY    70  34  27 SW10G20    N/A
* ROUNDUP APT  PTSUNNY   72  39  30 S7         N/A
* ALZADA       N/A       81  38  21 S12        N/A
* HYSHAM       N/A       70  35  28 W2G7       N/A
* LAME DEER    N/A       75  34  22 SW7G12     N/A
* REED POINT   N/A       63  41  45 SW2        N/A
* ROSCOE HILL  N/A       64  27  25 SW17G31    N/A
$$

REGIONAL REPORTS...DAKOTAS
CITY           SKY/WX    TMP DP  RH WIND       PRES   REMARKS
WILLISTON      SUNNY     75  43  32 SE10      29.59F
DICKINSON      SUNNY     79  45  30 S20       29.62F
BEACH          N/A       77  37  24 SW14      29.61F
CROSBY         SUNNY     75  43  32 SE13      29.59F
TIOGA          SUNNY     70  41  35 SE13G18   29.65S
BISMARCK       PTCLDY    81  46  29 S14G26    29.68S
GRAND FORKS    SUNNY     64  43  47 SE26G38   29.86F
FARGO          SUNNY     66  41  40 SE22G38   29.89F
BUFFALO SD     SUNNY     82  39  22 SW21G29   29.59F
RAPID CITY     HAZE      81  43  26 S17G28    29.73F
$$

REGIONAL REPORTS...WYOMING/IDAHO/WASHINGTON
CITY           SKY/WX    TMP DP  RH WIND       PRES   REMARKS
GILLETTE       SUNNY     77  36  23 SW20G33   29.73F
SHERIDAN       PTSUNNY   77  34  21 SW18G24   29.67F
CODY           PTSUNNY  N/A N/A N/A W22G30    29.80R
YELLOWSTONE LA CLOUDY    37  28  70 W10G17    30.03R WCI  30
SALMON         CLOUDY    46  39  77 E6        30.00R
MULLAN PASS    CLOUDY    36  34  92 VRB5      29.93S WCI  32
SAND POINT     CLOUDY    54  43  67 SW10G17   29.91R
SPOKANE        PTSUNNY   57  43  60 SW16G24   29.92S
$$

REGIONAL REPORTS...ALBERTA
CITY           SKY/WX    TMP DP  RH WIND       PRES   REMARKS
CALGARY        PTSUNNY   59  30  33 NW13G21   29.66S
LETHBRIDGE     PTSUNNY   57  36  46 W18G28    29.67F
MEDICINE HAT   LGT RAIN  57  46  67 SW12      29.64R
EDMONTON       PTSUNNY   55  39  55 SW3       29.63S
WATERTON GATE  N/A       54  32  43 SW15G26    N/A
CARDSTON       N/A       54  36  51 W13G18     N/A
MILK RIVER     N/A       50  46  86 W9         N/A
$$

REGIONAL REPORTS...SASKATCHEWAN
CITY           SKY/WX    TMP DP  RH WIND       PRES   REMARKS
SWIFT CURRENT  SUNNY     66  36  33 W14G20    29.55R
MOOSE JAW      PTSUNNY   77  45  32 SE8       29.54F
REGINA         SUNNY     72  46  40 SE15      29.56F
VAL MARIE      N/A       70  39  32 NW16       N/A
ASSINIBOIA     N/A       77  36  23 S12G17     N/A
CORONACH       N/A       75  41  30 SE12       N/A

$$




USA.gov is the U.S. government's official web portal to all federal, state and local government web resources and services.